KB7STN Weather Reports


time (UTC)temp
F
wind
direction
speed
knots
gust
knots
rain 1hr
in
rain 24hr
in
rain mn
in
humidity
%
barometer
mb
20260510013707 69 60 0.0 4.3 0.00 0.00 0.00 15 1007.0
20260510013207 69 60 0.9 2.6 0.00 0.00 0.00 15 1007.0
20260510012707 70 59 0.9 2.6 0.00 0.00 0.00 15 1007.0
20260510012207 70 58 0.9 3.5 0.00 0.00 0.00 16 1007.0
20260510011707 70 55 0.9 4.3 0.00 0.00 0.00 16 1007.0
20260510011207 70 58 0.9 3.5 0.00 0.00 0.00 16 1007.0
20260510010707 70 81 0.9 2.6 0.00 0.00 0.00 15 1007.0
20260510010207 70 81 1.7 6.1 0.00 0.00 0.00 15 1007.0
20260510005707 70 59 1.7 7.0 0.00 0.00 0.00 15 1007.0
20260510005207 71 55 0.9 2.6 0.00 0.00 0.00 15 1007.0
20260510004707 70 56 0.9 2.6 0.00 0.00 0.00 15 1007.0
20260510004207 70 55 1.7 2.6 0.00 0.00 0.00 15 1007.0
20260510003707 70 55 1.7 5.2 0.00 0.00 0.00 15 1007.0
20260510003207 70 52 1.7 4.3 0.00 0.00 0.00 15 1007.1
20260510002707 70 34 1.7 4.3 0.00 0.00 0.00 16 1007.0
20260510002207 71 33 1.7 5.2 0.00 0.00 0.00 15 1007.1
20260510001707 71 36 1.7 5.2 0.00 0.00 0.00 15 1007.1
20260510001207 71 44 1.7 7.0 0.00 0.00 0.00 16 1007.2
20260510000707 71 31 1.7 4.3 0.00 0.00 0.00 15 1007.1
20260510000207 70 42 2.6 6.1 0.00 0.00 0.00 16 1007.2
20260509235707 71 74 2.6 7.0 0.00 0.00 0.00 14 1007.2
20260509235207 71 23 1.7 5.2 0.00 0.00 0.00 16 1007.2
20260509234707 71 23 1.7 6.1 0.00 0.00 0.00 16 1007.2
20260509234207 71 55 2.6 6.1 0.00 0.00 0.00 16 1007.2
20260509233707 71 16 2.6 6.1 0.00 0.00 0.00 16 1007.2
20260509233207 71 38 2.6 5.2 0.00 0.00 0.00 16 1007.1
20260509232707 71 53 2.6 9.6 0.00 0.00 0.00 15 1007.1
20260509232207 71 72 2.6 7.0 0.00 0.00 0.00 15 1007.2
20260509231707 71 50 2.6 5.2 0.00 0.00 0.00 15 1007.2
20260509231207 71 67 3.5 6.1 0.00 0.00 0.00 15 1007.3
20260509230707 71 21 3.5 6.1 0.00 0.00 0.00 14 1007.3
20260509230207 71 19 2.6 7.0 0.00 0.00 0.00 15 1007.3
20260509225707 70 126 2.6 5.2 0.00 0.00 0.00 15 1007.3
20260509225207 70 71 2.6 7.8 0.00 0.00 0.00 16 1007.3
20260509224707 70 30 2.6 7.8 0.00 0.00 0.00 17 1007.4
20260509224207 70 68 3.5 8.7 0.00 0.00 0.00 16 1007.4
20260509223707 70 82 3.5 7.0 0.00 0.00 0.00 16 1007.5
20260509223207 71 21 3.5 9.6 0.00 0.00 0.00 16 1007.5
20260509222707 71 37 2.6 7.8 0.00 0.00 0.00 17 1007.6
20260509222207 71 67 1.7 6.1 0.00 0.00 0.00 16 1007.5
20260509221707 71 17 2.6 7.8 0.00 0.00 0.00 16 1007.6
20260509221207 71 59 2.6 6.1 0.00 0.00 0.00 17 1007.6
20260509220707 71 55 2.6 8.7 0.00 0.00 0.00 16 1007.5
20260509220207 71 57 1.7 7.0 0.00 0.00 0.00 17 1007.5
20260509215707 71 51 1.7 7.0 0.00 0.00 0.00 17 1007.6
20260509215207 71 71 1.7 4.3 0.00 0.00 0.00 19 1007.7
20260509214707 71 52 1.7 7.0 0.00 0.00 0.00 17 1007.7
20260509214207 71 32 0.9 6.1 0.00 0.00 0.00 17 1007.8
20260509213707 71 37 0.9 6.1 0.00 0.00 0.00 18 1007.8
20260509213207 70 59 1.7 5.2 0.00 0.00 0.00 18 1007.7
20260509212707 70 77 1.7 7.0 0.00 0.00 0.00 19 1007.8
20260509212207 70 36 1.7 7.0 0.00 0.00 0.00 19 1007.8
20260509211707 70 96 2.6 7.0 0.00 0.00 0.00 18 1007.8
20260509211207 69 44 1.7 6.1 0.00 0.00 0.00 21 1007.8
20260509210707 69 63 1.7 7.0 0.00 0.00 0.00 19 1007.9
20260509210207 69 61 1.7 6.1 0.00 0.00 0.00 19 1007.8
20260509205707 70 30 1.7 6.1 0.00 0.00 0.00 21 1007.9
20260509205207 70 30 1.7 6.1 0.00 0.00 0.00 19 1007.9
20260509204707 70 44 1.7 4.3 0.00 0.00 0.00 19 1007.9
20260509204207 70 46 1.7 4.3 0.00 0.00 0.00 20 1007.8
20260509203707 70 55 2.6 7.8 0.00 0.00 0.00 22 1007.9
20260509203207 70 34 1.7 7.0 0.00 0.00 0.00 21 1008.0
20260509202707 69 46 1.7 4.3 0.00 0.00 0.00 23 1007.7
20260509202207 69 50 2.6 6.1 0.00 0.00 0.00 21 1007.9
20260509201707 70 75 2.6 7.8 0.00 0.00 0.00 21 1007.9
20260509201207 70 134 1.7 7.8 0.00 0.00 0.00 24 1007.9
20260509200707 70 74 1.7 7.8 0.00 0.00 0.00 22 1008.2
20260509200207 70 69 0.9 3.5 0.00 0.00 0.00 25 1008.2
20260509195707 70 70 1.7 4.3 0.00 0.00 0.00 23 1008.1
20260509195207 69 59 1.7 6.1 0.00 0.00 0.00 23 1008.3
20260509194707 69 74 1.7 6.1 0.00 0.00 0.00 22 1008.1
20260509194207 69 58 0.9 7.0 0.00 0.00 0.00 23 1008.1
20260509193707 69 53 0.9 6.1 0.00 0.00 0.00 21 1008.2
20260509193207 69 53 1.7 5.2 0.00 0.00 0.00 24 1008.2
20260509192707 69 18 1.7 6.1 0.00 0.00 0.00 22 1008.2
20260509192207 69 74 0.9 4.3 0.00 0.00 0.00 22 1008.2
20260509191707 68 60 0.9 0.9 0.00 0.00 0.00 26 1008.2
20260509191207 68 60 1.7 7.0 0.00 0.00 0.00 23 1008.3
20260509190707 68 37 1.7 3.5 0.00 0.00 0.00 23 1008.3
20260509190207 68 36 1.7 5.2 0.00 0.00 0.00 23 1008.3
20260509185707 67 34 1.7 7.0 0.00 0.00 0.00 25 1008.3
20260509185207 68 69 0.9 5.2 0.00 0.00 0.00 24 1008.4
20260509184707 68 69 0.9 5.2 0.00 0.00 0.00 24 1008.5
20260509184207 68 69 0.9 3.5 0.00 0.00 0.00 25 1008.5
20260509183707 68 65 0.9 7.0 0.00 0.00 0.00 22 1008.5
20260509183207 68 70 0.9 7.0 0.00 0.00 0.00 27 1008.5
20260509182707 68 41 2.6 4.3 0.00 0.00 0.00 24 1008.4
20260509182207 67 28 2.6 8.7 0.00 0.00 0.00 25 1008.5
20260509181707 67 57 1.7 5.2 0.00 0.00 0.00 24 1008.5
20260509181207 67 78 1.7 6.1 0.00 0.00 0.00 23 1008.5
20260509180707 67 95 1.7 4.3 0.00 0.00 0.00 25 1008.5
20260509180207 66 90 2.6 7.0 0.00 0.00 0.00 24 1008.5
20260509175707 66 74 1.7 6.1 0.00 0.00 0.00 24 1008.6
20260509175207 65 40 1.7 5.2 0.00 0.00 0.00 26 1008.5
20260509174707 66 40 1.7 5.2 0.00 0.00 0.00 26 1008.5
20260509174207 66 41 2.6 4.3 0.00 0.00 0.00 24 1008.5
20260509173707 65 61 2.6 5.2 0.00 0.00 0.00 22 1008.6
20260509173207 66 86 2.6 8.7 0.00 0.00 0.00 22 1008.6
20260509172708 66 53 2.6 7.0 0.00 0.00 0.00 23 1008.5
20260509172207 66 49 1.7 7.0 0.00 0.00 0.00 23 1008.5
20260509171707 65 61 1.7 4.3 0.00 0.00 0.00 27 1008.4
20260509171208 65 34 1.7 4.3 0.00 0.00 0.00 27 1008.5
20260509170708 64 31 1.7 4.3 0.00 0.00 0.00 25 1008.5
20260509170208 64 30 2.6 5.2 0.00 0.00 0.00 25 1008.5
20260509165708 65 60 2.6 5.2 0.00 0.00 0.00 26 1008.4
20260509165208 65 52 2.6 4.3 0.00 0.00 0.00 26 1008.3
20260509164708 64 48 1.7 9.6 0.00 0.00 0.00 26 1008.3
20260509164208 64 49 1.7 9.6 0.00 0.00 0.00 27 1008.4
20260509163759 64 35 2.6 6.1 0.00 0.00 0.00 26 1008.6
20260509163208 64 53 2.6 7.0 0.00 0.00 0.00 27 1008.5
20260509162708 64 64 2.6 8.7 0.00 0.00 0.00 26 1008.5
20260509162208 64 45 2.6 7.0 0.00 0.00 0.00 27 1008.5
20260509161708 64 77 2.6 7.0 0.00 0.00 0.00 28 1008.5
20260509161208 64 64 2.6 7.8 0.00 0.00 0.00 26 1008.4
20260509160708 63 59 2.6 6.1 0.00 0.00 0.00 27 1008.5
20260509160208 63 48 2.6 7.0 0.00 0.00 0.00 27 1008.4
20260509155708 63 62 2.6 6.1 0.00 0.00 0.00 26 1008.5
20260509155208 63 40 3.5 7.8 0.00 0.00 0.00 27 1008.5
20260509154708 63 42 3.5 9.6 0.00 0.00 0.00 26 1008.4
20260509154208 63 63 3.5 7.8 0.00 0.00 0.00 26 1008.5
20260509153708 63 53 3.5 8.7 0.00 0.00 0.00 26 1008.6
20260509153208 63 31 3.5 7.0 0.00 0.00 0.00 26 1008.5
20260509152708 63 77 3.5 8.7 0.00 0.00 0.00 26 1008.4
20260509152208 63 55 3.5 8.7 0.00 0.00 0.00 26 1008.4
20260509151708 63 46 3.5 7.0 0.00 0.00 0.00 26 1008.5
20260509151208 63 65 2.6 7.8 0.00 0.00 0.00 26 1008.4
20260509150708 63 32 1.7 7.0 0.00 0.00 0.00 27 1008.4
20260509150208 63 22 1.7 6.1 0.00 0.00 0.00 27 1008.3
20260509145708 63 44 1.7 4.3 0.00 0.00 0.00 28 1008.2
20260509145208 63 24 1.7 7.0 0.00 0.00 0.00 28 1008.2
20260509144708 63 351 1.7 4.3 0.00 0.00 0.00 29 1008.2
20260509144208 62 350 1.7 5.2 0.00 0.00 0.00 28 1008.2
20260509143708 62 349 1.7 3.5 0.00 0.00 0.00 29 1008.2
20260509143208 62 349 1.7 4.3 0.00 0.00 0.00 30 1008.2
20260509142708 61 348 1.7 5.2 0.00 0.00 0.00 30 1008.2
20260509142208 61 344 1.7 6.1 0.00 0.00 0.00 31 1008.2
20260509141708 61 334 0.9 4.3 0.00 0.00 0.00 30 1008.1
20260509141208 60 333 0.9 4.3 0.00 0.00 0.00 31 1008.1
20260509140708 60 324 0.9 3.5 0.00 0.00 0.00 32 1008.1
20260509140208 59 324 0.9 6.1 0.00 0.00 0.00 34 1008.1
20260509135708 59 323 0.9 4.3 0.00 0.00 0.00 33 1008.1
20260509135208 58 323 0.9 2.6 0.00 0.00 0.00 36 1008.0
20260509134708 58 323 1.7 3.5 0.00 0.00 0.00 36 1007.9
20260509134208 57 323 2.6 5.2 0.00 0.00 0.00 37 1007.8
20260509133708 56 323 2.6 7.0 0.00 0.00 0.00 38 1007.8
20260509133208 56 324 1.7 6.1 0.00 0.00 0.00 39 1007.8
20260509132708 55 324 1.7 5.2 0.00 0.00 0.00 40 1007.7
20260509132208 55 325 1.7 5.2 0.00 0.00 0.00 40 1007.6
20260509131708 55 325 1.7 5.2 0.00 0.00 0.00 39 1007.5
20260509131208 54 325 1.7 5.2 0.00 0.00 0.00 40 1007.5
20260509130708 54 325 1.7 5.2 0.00 0.00 0.00 41 1007.4
20260509130208 54 325 1.7 2.6 0.00 0.00 0.00 42 1007.4
20260509125708 54 325 1.7 6.1 0.00 0.00 0.00 42 1007.4
20260509125208 54 325 1.7 3.5 0.00 0.00 0.00 41 1007.3
20260509124708 54 325 1.7 3.5 0.00 0.00 0.00 40 1007.3
20260509124208 54 325 1.7 4.3 0.00 0.00 0.00 40 1007.2
20260509123708 54 324 2.6 6.1 0.00 0.00 0.00 39 1007.1
20260509123208 54 324 1.7 6.1 0.00 0.00 0.00 39 1007.1
20260509122708 54 324 0.9 5.2 0.00 0.00 0.00 39 1007.1
20260509122208 54 324 0.9 4.3 0.00 0.00 0.00 38 1007.0
20260509121708 54 324 0.9 4.3 0.00 0.00 0.00 38 1007.0
20260509121208 54 325 0.9 2.6 0.00 0.00 0.00 38 1006.9
20260509120708 54 324 0.9 3.5 0.00 0.00 0.00 38 1006.7
20260509120208 54 325 0.9 2.6 0.00 0.00 0.00 38 1006.7
20260509115708 54 324 0.9 3.5 0.00 0.00 0.00 36 1006.5
20260509115208 54 325 0.9 3.5 0.00 0.00 0.00 36 1006.6
20260509114708 54 325 1.7 5.2 0.00 0.00 0.00 37 1006.7
20260509114208 54 325 0.9 5.2 0.00 0.00 0.00 36 1006.7
20260509113708 55 325 0.9 3.5 0.00 0.00 0.00 36 1006.6
20260509113208 55 325 0.9 2.6 0.00 0.00 0.00 36 1006.5
20260509112708 55 325 0.9 3.5 0.00 0.00 0.00 36 1006.5
20260509112208 55 325 0.9 2.6 0.00 0.00 0.00 35 1006.5
20260509111708 56 325 1.7 2.6 0.00 0.00 0.00 34 1006.4
20260509111208 56 325 1.7 4.3 0.00 0.00 0.00 33 1006.3
20260509110708 56 321 0.9 6.1 0.00 0.00 0.00 35 1006.3
20260509110208 56 321 0.9 6.1 0.00 0.00 0.00 35 1006.3
20260509105708 56 321 0.9 3.5 0.00 0.00 0.00 37 1006.3
20260509105208 56 321 1.7 2.6 0.00 0.00 0.00 36 1006.4
20260509104708 56 321 1.7 4.3 0.00 0.00 0.00 36 1006.3
20260509104208 56 321 2.6 5.2 0.00 0.00 0.00 36 1006.3
20260509103708 56 321 1.7 5.2 0.00 0.00 0.00 35 1006.2
20260509103208 56 323 1.7 6.1 0.00 0.00 0.00 35 1006.2
20260509102708 56 323 0.9 3.5 0.00 0.00 0.00 35 1006.2
20260509102208 56 323 0.0 2.6 0.00 0.00 0.00 35 1006.2
20260509101708 56 323 0.0 2.6 0.00 0.00 0.00 35 1006.1
20260509101208 56 323 0.9 1.7 0.00 0.00 0.00 35 1006.1
20260509100708 56 323 0.9 2.6 0.00 0.00 0.00 34 1006.0
20260509100208 57 323 0.9 2.6 0.00 0.00 0.00 34 1006.0
20260509095708 57 323 1.7 2.6 0.00 0.00 0.00 34 1005.9
20260509095208 57 323 0.9 4.3 0.00 0.00 0.00 34 1005.9
20260509094708 57 323 0.9 4.3 0.00 0.00 0.00 34 1005.9
20260509094208 58 323 1.7 1.7 0.00 0.00 0.00 34 1005.9
20260509093708 58 323 1.7 4.3 0.00 0.00 0.00 33 1005.9
20260509093208 58 323 0.9 4.3 0.00 0.00 0.00 34 1005.8
20260509092708 58 323 0.9 2.6 0.00 0.00 0.00 33 1005.9
20260509092208 58 323 0.9 5.2 0.00 0.00 0.00 32 1005.8
20260509091708 58 323 0.9 3.5 0.00 0.00 0.00 32 1005.7
20260509091208 58 322 0.9 4.3 0.00 0.00 0.00 32 1005.5
20260509090708 59 324 0.9 4.3 0.00 0.00 0.00 32 1005.6
20260509090208 59 333 0.0 2.6 0.00 0.00 0.00 32 1005.5
20260509085708 59 333 0.9 2.6 0.00 0.00 0.00 31 1005.5
20260509085208 59 333 0.9 4.3 0.00 0.00 0.00 31 1005.4
20260509084708 60 334 0.9 2.6 0.00 0.00 0.00 32 1005.4
20260509084208 60 339 0.9 5.2 0.00 0.00 0.00 31 1005.3
20260509083708 60 344 0.0 0.9 0.00 0.00 0.00 31 1005.3
20260509083208 60 344 0.9 3.5 0.00 0.00 0.00 30 1005.1
20260509082708 60 344 0.9 5.2 0.00 0.00 0.00 31 1005.1
20260509082208 60 326 0.0 4.3 0.00 0.00 0.00 30 1005.1
20260509081708 61 327 0.0 0.0 0.00 0.00 0.00 30 1005.0
20260509081208 61 327 0.9 0.0 0.00 0.00 0.00 30 1005.0
20260509080708 61 327 0.9 3.5 0.00 0.00 0.00 29 1005.0
20260509080208 61 327 0.9 5.2 0.00 0.00 0.00 30 1005.0
20260509075708 61 327 0.0 0.0 0.00 0.00 0.00 30 1005.0
20260509075208 61 327 0.0 1.7 0.00 0.00 0.00 31 1004.9
20260509074708 61 327 0.0 3.5 0.00 0.00 0.00 31 1004.9
20260509074208 61 327 0.0 2.6 0.00 0.00 0.00 32 1004.9
20260509073708 61 327 0.9 4.3 0.00 0.00 0.00 33 1004.9
20260509073208 60 327 0.9 4.3 0.00 0.00 0.00 34 1004.8
20260509072708 60 327 0.0 2.6 0.00 0.00 0.00 35 1004.9
20260509072208 60 328 0.0 4.3 0.00 0.00 0.00 35 1004.7
20260509071708 59 328 0.0 6.1 0.00 0.00 0.00 35 1004.6
20260509071208 59 329 0.0 0.9 0.00 0.00 0.00 35 1004.7
20260509070708 59 329 0.0 0.0 0.00 0.00 0.00 34 1004.5
20260509070209 60 329 0.0 0.0 0.00 0.00 0.00 35 1004.3
20260509065708 61 329 0.0 0.0 0.00 0.00 0.00 32 1004.2
20260509065208 61 329 0.0 0.0 0.00 0.00 0.00 31 1004.0
20260509064709 62 329 0.0 0.0 0.00 0.00 0.00 31 1003.9
20260509064209 62 329 0.0 0.0 0.00 0.00 0.00 29 1003.9
20260509063708 62 329 0.0 0.0 0.00 0.00 0.00 29 1003.8
20260509063209 62 329 0.0 0.0 0.00 0.00 0.00 29 1003.8
20260509062709 62 329 0.0 0.0 0.00 0.00 0.00 30 1003.8
20260509062208 62 329 0.0 0.0 0.00 0.00 0.00 30 1003.9
20260509061709 62 329 0.0 0.0 0.00 0.00 0.00 30 1004.0
20260509061209 62 329 0.0 5.2 0.00 0.00 0.00 31 1004.1
20260509060709 61 329 0.0 0.0 0.00 0.00 0.00 30 1004.0
20260509060209 61 329 0.0 0.0 0.00 0.00 0.00 30 1004.0
20260509055709 61 329 0.0 3.5 0.00 0.00 0.00 30 1004.0
20260509055209 61 329 0.0 3.5 0.00 0.00 0.00 31 1004.1
20260509054709 61 329 0.0 3.5 0.00 0.00 0.00 30 1004.1
20260509054209 61 329 0.0 0.0 0.00 0.00 0.00 30 1004.0
20260509053709 61 329 0.0 0.0 0.00 0.00 0.00 29 1003.7
20260509053209 61 329 0.0 0.0 0.00 0.00 0.00 29 1003.7
20260509052709 61 329 0.0 0.0 0.00 0.00 0.00 30 1003.6
20260509052209 62 329 0.0 0.0 0.00 0.00 0.00 29 1003.6
20260509051709 62 329 0.0 0.0 0.00 0.00 0.00 28 1003.6
20260509051209 62 329 0.0 0.0 0.00 0.00 0.00 28 1003.6
20260509050709 62 329 0.0 0.0 0.00 0.00 0.00 28 1003.6
20260509050209 63 329 0.0 0.0 0.00 0.00 0.00 28 1003.6
20260509045709 63 329 0.0 0.0 0.00 0.00 0.00 28 1003.6
20260509045209 63 329 0.0 0.0 0.00 0.00 0.00 29 1003.6
20260509044709 64 329 0.0 0.0 0.00 0.00 0.00 28 1003.6
20260509044209 64 329 0.0 0.0 0.00 0.00 0.00 27 1003.5
20260509043709 64 329 0.0 0.0 0.00 0.00 0.00 28 1003.5
20260509043209 64 329 0.0 0.0 0.00 0.00 0.00 28 1003.4
20260509042709 64 329 0.0 0.0 0.00 0.00 0.00 28 1003.5
20260509042209 63 329 0.0 0.0 0.00 0.00 0.00 29 1003.4
20260509041709 63 329 0.0 0.0 0.00 0.00 0.00 29 1003.4
20260509041209 63 329 0.0 0.0 0.00 0.00 0.00 29 1003.3
20260509040709 63 329 0.0 0.0 0.00 0.00 0.00 29 1003.3
20260509040209 63 329 0.0 0.0 0.00 0.00 0.00 30 1003.4
20260509035709 63 329 0.0 0.0 0.00 0.00 0.00 30 1003.4
20260509035209 63 329 0.0 0.0 0.00 0.00 0.00 30 1003.4
20260509034709 63 329 0.0 0.0 0.00 0.00 0.00 30 1003.3
20260509034209 63 329 0.0 0.0 0.00 0.00 0.00 30 1003.2
20260509033709 64 329 0.0 0.0 0.00 0.00 0.00 30 1003.3
20260509033209 64 329 0.0 0.0 0.00 0.00 0.00 30 1003.2
20260509032709 64 329 0.0 0.0 0.00 0.00 0.00 30 1003.0
20260509032209 65 329 0.0 0.0 0.00 0.00 0.00 29 1003.0
20260509031709 65 329 0.0 0.0 0.00 0.00 0.00 29 1002.9
20260509031209 65 329 0.0 0.0 0.00 0.00 0.00 29 1002.9
20260509030709 65 329 0.0 0.0 0.00 0.00 0.00 29 1003.0
20260509030209 65 329 0.0 0.0 0.00 0.00 0.00 28 1003.0
20260509025709 65 329 0.0 0.0 0.00 0.00 0.00 29 1003.0
20260509025209 66 329 0.0 0.0 0.00 0.00 0.00 28 1002.9
20260509024709 66 329 0.0 0.0 0.00 0.00 0.00 27 1003.0
20260509024209 67 329 0.0 0.0 0.00 0.00 0.00 26 1002.9
20260509023709 68 329 0.0 0.0 0.00 0.00 0.00 28 1002.9
20260509023209 68 329 0.0 0.0 0.00 0.00 0.00 24 1002.9
20260509022709 69 329 0.0 0.0 0.00 0.00 0.00 25 1002.7
20260509022209 70 329 0.0 0.0 0.00 0.00 0.00 23 1002.8
20260509021709 70 329 0.0 0.0 0.00 0.00 0.00 22 1002.7
20260509021209 71 329 0.0 0.0 0.00 0.00 0.00 21 1002.7
20260509020709 71 329 0.0 0.0 0.00 0.00 0.00 21 1002.7
20260509020209 71 329 0.0 0.0 0.00 0.00 0.00 20 1002.7
20260509015709 72 329 0.0 2.6 0.00 0.00 0.00 20 1002.7
20260509015209 73 329 0.0 0.0 0.00 0.00 0.00 19 1002.7
20260509014709 73 329 0.0 0.0 0.00 0.00 0.00 20 1002.7
20260509014209 74 329 0.9 1.7 0.00 0.00 0.00 20 1002.7